EW3995 Weather Reports


Display with metric or nautical units.
time (UTC)temp
F
wind
direction
speed
MPH
gust
MPH
rain 1hr
in
rain 24hr
in
rain mn
in
humidity
%
barometer
mb
20260507143001 53 10 2.0 6.0 0.00 0.00 0.00 6 1012.7
20260507142001 54 22 0.0 3.0 0.00 0.00 0.00 6 1011.6
20260507141001 55 31 1.0 3.0 0.00 0.00 0.00 6 1011.6
20260507140001 58 17 2.0 6.0 0.00 0.00 0.00 5 1012.7
20260507134827 59 358 3.0 6.0 0.00 0.00 0.00 5 1012.7
20260507133827 56 333 1.0 4.0 0.00 0.00 0.00 6 1012.7
20260507132827 58 353 2.0 5.0 0.00 0.00 0.00 5 1012.7
20260507131827 56 322 3.0 6.0 0.00 0.00 0.00 6 1012.7
20260507130827 57 317 2.0 5.0 0.00 0.00 0.00 5 1012.7
20260507125827 57 356 2.0 6.0 0.00 0.00 0.00 5 1011.6
20260507124827 58 311 4.0 5.0 0.00 0.00 0.00 5 1011.6
20260507123827 57 302 2.0 4.0 0.00 0.00 0.00 5 1011.6
20260507122827 58 315 2.0 6.0 0.00 0.00 0.00 5 1011.6
20260507121827 59 308 3.0 7.0 0.00 0.00 0.00 5 1011.6
20260507120657 59 270 3.0 7.0 0.00 0.00 0.00 5 1011.6
20260507115657 60 324 2.0 6.0 0.00 0.00 0.00 6 1011.6
20260507114657 59 326 3.0 7.0 0.00 0.00 0.00 6 1011.6
20260507113657 59 348 3.0 6.0 0.00 0.00 0.00 10 1011.6
20260507112657 59 319 3.0 6.0 0.00 0.00 0.00 12 1011.6
20260507111657 59 285 4.0 6.0 0.00 0.00 0.00 14 1011.6
20260507110657 58 299 3.0 9.0 0.00 0.00 0.00 8 1011.6
20260507105657 59 328 3.0 8.0 0.00 0.00 0.00 16 1011.6
20260507104657 59 324 3.0 6.0 0.00 0.00 0.00 22 1011.6
20260507103657 59 122 1.0 6.0 0.00 0.00 0.00 22 1011.6
20260507102657 59 292 3.0 8.0 0.00 0.00 0.00 24 1011.6
20260507101657 59 27 3.0 6.0 0.00 0.00 0.00 25 1011.6
20260507100657 59 20 3.0 6.0 0.00 0.00 0.00 25 1011.6
20260507095657 59 295 3.0 6.0 0.00 0.00 0.00 25 1011.6
20260507094657 58 313 3.0 7.0 0.00 0.00 0.00 25 1010.6
20260507093657 58 351 2.0 7.0 0.00 0.00 0.00 25 1010.6
20260507092657 58 341 3.0 8.0 0.00 0.00 0.00 25 1010.6
20260507091657 58 313 4.0 6.0 0.00 0.00 0.00 26 1011.6
20260507090657 58 2 3.0 8.0 0.00 0.00 0.00 26 1011.6
20260507085657 58 324 4.0 10.0 0.00 0.00 0.00 27 1011.6
20260507084527 58 330 4.0 7.0 0.00 0.00 0.00 27 1011.6
20260507083527 58 45 4.0 6.0 0.00 0.00 0.00 27 1011.6
20260507082527 59 335 3.0 13.0 0.00 0.00 0.00 29 1011.6
20260507081227 59 22 4.0 6.0 0.00 0.00 0.00 28 1011.6
20260507080227 59 325 4.0 9.0 0.00 0.00 0.00 29 1011.6
20260507075227 58 290 5.0 11.0 0.00 0.00 0.00 30 1011.6
20260507074227 59 332 4.0 8.0 0.00 0.00 0.00 32 1011.6
20260507073227 59 313 4.0 10.0 0.00 0.00 0.00 34 1011.6
20260507072227 58 295 3.0 8.0 0.00 0.00 0.00 33 1011.6
20260507071227 59 333 3.0 6.0 0.00 0.00 0.00 35 1011.6
20260507070227 58 274 4.0 9.0 0.00 0.00 0.00 35 1010.6
20260507064844 58 354 3.0 15.0 0.00 0.00 0.00 36 1010.6
20260507063844 58 14 4.0 6.0 0.00 0.00 0.00 36 1010.6
20260507062844 57 333 3.0 6.0 0.00 0.00 0.00 39 1010.6
20260507061714 56 338 4.0 11.0 0.00 0.00 0.00 42 1009.6
20260507060714 55 334 3.0 9.0 0.00 0.00 0.00 44 1009.6
20260507055714 57 328 3.0 9.0 0.00 0.00 0.00 45 1009.6
20260507054714 56 304 4.0 8.0 0.00 0.00 0.00 47 1009.6
20260507053714 56 10 4.0 6.0 0.00 0.00 0.00 48 1009.6
20260507052522 55 331 4.0 7.0 0.00 0.00 0.00 48 1010.6
20260507051523 55 295 4.0 9.0 0.00 0.00 0.00 50 1009.6
20260507050201 53 276 3.0 8.0 0.00 0.00 0.00 51 1009.6
20260507045201 56 295 4.0 8.0 0.00 0.00 0.00 51 1009.6
20260507044201 54 323 1.0 6.0 0.00 0.00 0.00 54 1009.6
20260507043201 55 290 2.0 6.0 0.00 0.00 0.00 58 1008.5
20260507042202 54 338 3.0 6.0 0.00 0.00 0.00 62 1008.5
20260507041201 52 284 3.0 5.0 0.00 0.00 0.00 62 1008.5
20260507040201 54 328 3.0 6.0 0.00 0.00 0.00 65 1007.5
20260507035010 51 342 3.0 7.0 0.00 0.00 0.00 68 1007.5
20260507034010 50 351 4.0 9.0 0.00 0.00 0.00 71 1007.5
20260507033011 49 0 3.0 6.0 0.00 0.00 0.00 70 1007.5
20260507032010 50 338 2.0 6.0 0.00 0.00 0.00 70 1008.5
20260507031010 49 307 4.0 7.0 0.00 0.00 0.00 70 1008.5
20260507030010 49 11 3.0 6.0 0.00 0.00 0.00 71 1007.5
20260507024819 48 331 4.0 8.0 0.00 0.00 0.00 72 1007.5
20260507023819 48 349 3.0 7.0 0.00 0.00 0.00 72 1007.5
20260507022819 49 346 4.0 7.0 0.00 0.00 0.00 81 1006.4
20260507021819 52 324 3.0 7.0 0.00 0.00 0.00 96 1006.4
20260507020819 52 288 1.0 4.0 0.00 0.00 0.00 96 1006.4
20260507015819 52 297 3.0 4.0 0.00 0.00 0.00 97 1005.4
20260507014819 52 315 0.0 3.0 0.00 0.00 0.00 97 1005.4
20260507013457 52 284 1.0 4.0 0.00 0.00 0.00 97 1005.4
20260507012457 52 342 1.0 3.0 0.00 0.00 0.00 97 1005.4
20260507011457 51 327 0.0 4.0 0.00 0.00 0.00 97 1005.4
20260507010306 50 338 1.0 5.0 0.00 0.00 0.00 96 1005.4
20260507005306 50 288 1.0 3.0 0.00 0.00 0.00 94 1005.4
20260507004306 50 270 0.0 2.0 0.00 0.00 0.00 94 1005.4
20260507003306 50 292 1.0 3.0 0.00 0.00 0.00 93 1005.4
20260507002115 51 303 0.0 4.0 0.00 0.00 0.00 94 1005.4
20260507001115 51 339 1.0 5.0 0.00 0.00 0.00 93 1005.4
20260507000115 52 266 3.0 6.0 0.00 0.00 0.00 94 1004.4
20260506234924 51 288 2.0 6.0 0.00 0.00 0.00 93 1004.4
20260506233923 51 303 1.0 3.0 0.00 0.00 0.00 91 1004.4
20260506232923 51 288 1.0 4.0 0.00 0.00 0.00 91 1004.4
20260506231923 51 279 1.0 8.0 0.00 0.00 0.00 91 1004.4
20260506230924 51 333 1.0 4.0 0.00 0.00 0.00 91 1004.4
20260506225924 51 270 1.0 2.0 0.00 0.00 0.00 91 1003.3
20260506224924 52 250 2.0 4.0 0.00 0.00 0.00 92 1003.3
20260506223923 51 274 1.0 4.0 0.00 0.00 0.00 91 1003.3
20260506222923 51 328 0.0 4.0 0.00 0.00 0.00 91 1002.3
20260506221732 50 270 1.0 3.0 0.00 0.00 0.00 91 1003.3
20260506220732 49 276 1.0 3.0 0.00 0.00 0.00 90 1003.3
20260506215732 49 241 0.0 3.0 0.00 0.00 0.00 88 1003.3
20260506214732 49 227 1.0 3.0 0.00 0.00 0.00 88 1003.3
20260506213732 48 270 1.0 5.0 0.00 0.00 0.00 87 1003.3
20260506212732 48 338 0.0 0.0 0.00 0.00 0.00 88 1003.3
20260506211541 49 338 0.0 1.0 0.00 0.00 0.00 85 1003.3
20260506210349 49 338 0.0 0.0 0.00 0.00 0.00 85 1003.3
20260506205349 50 338 0.0 2.0 0.00 0.00 0.00 85 1003.3
20260506204349 50 338 0.0 1.0 0.00 0.00 0.00 84 1003.3
20260506203350 51 329 1.0 3.0 0.00 0.00 0.00 83 1003.3
20260506202349 52 292 1.0 2.0 0.00 0.00 0.00 79 1003.3
20260506201349 53 171 2.0 3.0 0.00 0.00 0.00 74 1003.3
20260506200158 54 180 3.0 5.0 0.00 0.00 0.00 71 1004.4
20260506195158 55 207 2.0 4.0 0.00 0.00 0.00 66 1004.4
20260506194158 56 270 0.0 3.0 0.00 0.00 0.00 64 1003.3
20260506193158 56 172 2.0 6.0 0.00 0.00 0.00 65 1003.3
20260506192157 56 303 2.0 6.0 0.00 0.00 0.00 64 1003.3
20260506191158 56 268 1.0 4.0 0.00 0.00 0.00 63 1004.4
20260506190158 56 261 1.0 4.0 0.00 0.00 0.00 60 1003.3
20260506185158 57 252 2.0 5.0 0.00 0.00 0.00 60 1003.3
20260506184158 57 299 3.0 7.0 0.00 0.00 0.00 59 1003.3
20260506183158 57 2 2.0 5.0 0.00 0.00 0.00 57 1003.3
20260506182158 57 315 3.0 6.0 0.00 0.00 0.00 60 1003.3
20260506181158 56 346 2.0 5.0 0.00 0.00 0.00 57 1002.3
20260506180158 57 151 1.0 3.0 0.00 0.00 0.00 52 1003.3
20260506175028 58 281 1.0 4.0 0.00 0.00 0.00 50 1002.3
20260506174028 59 252 2.0 8.0 0.00 0.00 0.00 50 1002.3
20260506173028 56 277 3.0 9.0 0.00 0.00 0.00 55 1002.3
20260506172028 55 180 0.0 0.0 0.00 0.00 0.00 52 1002.3
20260506171028 54 180 1.0 3.0 0.00 0.00 0.00 51 1002.3
20260506170028 54 180 0.0 0.0 0.00 0.00 0.00 51 1002.3
20260506165028 55 180 0.0 3.0 0.00 0.00 0.00 50 1003.3
20260506164028 56 176 1.0 3.0 0.00 0.00 0.00 48 1003.3
20260506163028 56 202 0.0 2.0 0.00 0.00 0.00 47 1003.3
20260506162028 57 202 0.0 0.0 0.00 0.00 0.00 46 1003.3
20260506161028 58 202 0.0 1.0 0.00 0.00 0.00 44 1003.3
20260506160028 59 202 0.0 1.0 0.00 0.00 0.00 44 1003.3
20260506154857 60 202 0.0 0.0 0.00 0.00 0.00 42 1003.3
20260506153858 61 202 0.0 0.0 0.00 0.00 0.00 40 1003.3
20260506152857 62 202 1.0 2.0 0.00 0.00 0.00 39 1003.3
20260506151857 64 202 0.0 2.0 0.00 0.00 0.00 38 1003.3
20260506150857 65 194 1.0 3.0 0.00 0.00 0.00 36 1003.3
20260506145857 65 225 1.0 4.0 0.00 0.00 0.00 36 1003.3
20260506144857 66 186 2.0 6.0 0.00 0.00 0.00 35 1003.3